Torna al catalogo

FENGYUN 1C DEB

AttivoPO
NORAD 31215·DEBRIS·🇨🇳 China

Lanciato May 10, 1999 da Taiyuan Satellite Launch Center

Loading…

Prossimi Passaggi (prossime 24 ore)

TLE

AggiornatoSource: Space-Track

Epoca: Sep 13, 2026, 10:26 UTC

1 31215U 99025BKV 26256.43517962  .00001377  00000-0  48792-3 0  9996
2 31215  99.0436 118.7862 0066334 242.4905 116.9526 14.35026245  3607

Traccia FENGYUN 1C DEB in tempo reale con AllMySat

Download on the App Store